TimePST,TemperatureF,Dew PointF,Humidity,Sea Level PressureIn,VisibilityMPH,Wind Direction,Wind SpeedMPH,Gust SpeedMPH,PrecipitationIn,Events,Conditions,WindDirDegrees,DateUTC
12:09 AM,50.0,48.2,94,30.26,6.0,Calm,Calm,-,N/A,,Overcast,0,2012-11-13 08:09:00
12:21 AM,50.0,48.2,94,30.26,7.0,Calm,Calm,-,N/A,,Overcast,0,2012-11-13 08:21:00
12:37 AM,50.0,48.2,94,30.25,5.0,Calm,Calm,-,N/A,,Overcast,0,2012-11-13 08:37:00
1:00 AM,50.0,48.2,94,30.25,5.0,Calm,Calm,-,N/A,,Overcast,0,2012-11-13 09:00:00
1:08 AM,50.0,48.2,94,30.25,5.0,Calm,Calm,-,N/A,,Overcast,0,2012-11-13 09:08:00
1:53 AM,50.0,46.9,89,30.25,10.0,Calm,Calm,-,N/A,,Overcast,0,2012-11-13 09:53:00
2:53 AM,48.9,48.0,97,30.24,6.0,Calm,Calm,-,N/A,,Overcast,0,2012-11-13 10:53:00
3:31 AM,48.2,48.2,100,30.22,7.0,Calm,Calm,-,0.00,,Overcast,0,2012-11-13 11:31:00
3:53 AM,48.9,46.9,93,30.22,7.0,Calm,Calm,-,0.00,,Overcast,0,2012-11-13 11:53:00
4:19 AM,48.2,48.2,100,30.22,5.0,Calm,Calm,-,N/A,,Overcast,0,2012-11-13 12:19:00
4:43 AM,48.2,46.4,93,30.22,6.0,Calm,Calm,-,N/A,,Overcast,0,2012-11-13 12:43:00
4:53 AM,48.9,46.9,93,30.22,6.0,Calm,Calm,-,N/A,,Overcast,0,2012-11-13 12:53:00
5:40 AM,48.2,46.4,93,30.21,1.8,Calm,Calm,-,N/A,,Overcast,0,2012-11-13 13:40:00
5:50 AM,48.2,46.4,93,30.21,1.5,Calm,Calm,-,N/A,,Overcast,0,2012-11-13 13:50:00
5:53 AM,48.0,46.0,93,30.22,4.0,Calm,Calm,-,N/A,,Overcast,0,2012-11-13 13:53:00
6:12 AM,48.2,46.4,93,30.21,1.8,Calm,Calm,-,N/A,,Overcast,0,2012-11-13 14:12:00
6:24 AM,48.2,46.4,93,30.21,0.8,Calm,Calm,-,N/A,,Mist,0,2012-11-13 14:24:00
6:39 AM,48.2,46.4,93,30.21,2.0,Calm,Calm,-,N/A,,Overcast,0,2012-11-13 14:39:00
6:53 AM,48.0,46.9,96,30.22,6.0,Calm,Calm,-,N/A,,Overcast,0,2012-11-13 14:53:00
7:38 AM,48.2,46.4,93,30.21,6.0,Calm,Calm,-,N/A,,Overcast,0,2012-11-13 15:38:00
7:53 AM,48.9,46.9,93,30.22,10.0,Calm,Calm,-,N/A,,Overcast,0,2012-11-13 15:53:00
8:53 AM,50.0,46.9,89,30.23,10.0,Calm,Calm,-,N/A,,Overcast,0,2012-11-13 16:53:00
9:53 AM,51.1,46.9,86,30.22,10.0,SE,3.5,-,N/A,,Overcast,130,2012-11-13 17:53:00
10:29 AM,51.8,46.4,82,30.22,10.0,Calm,Calm,-,N/A,,Overcast,0,2012-11-13 18:29:00
10:53 AM,52.0,46.9,83,30.22,10.0,Calm,Calm,-,N/A,,Overcast,0,2012-11-13 18:53:00
11:53 AM,54.0,46.9,77,30.20,10.0,Calm,Calm,-,N/A,,Overcast,0,2012-11-13 19:53:00
12:11 PM,53.6,48.2,82,30.19,10.0,Calm,Calm,-,N/A,,Scattered Clouds,0,2012-11-13 20:11:00
12:53 PM,55.0,48.0,77,30.18,10.0,Calm,Calm,-,N/A,,Clear,0,2012-11-13 20:53:00
1:53 PM,55.9,48.0,75,30.17,10.0,North,4.6,-,N/A,,Clear,360,2012-11-13 21:53:00
2:53 PM,55.9,48.0,75,30.16,10.0,North,5.8,-,N/A,,Clear,10,2012-11-13 22:53:00
3:53 PM,55.0,48.0,77,30.17,10.0,Calm,Calm,-,N/A,,Clear,0,2012-11-13 23:53:00
4:53 PM,53.1,48.9,86,30.17,10.0,Calm,Calm,-,N/A,,Clear,0,2012-11-14 00:53:00
5:53 PM,51.1,48.0,89,30.18,10.0,Calm,Calm,-,N/A,,Clear,0,2012-11-14 01:53:00
6:13 PM,50.0,46.4,87,30.18,10.0,Calm,Calm,-,N/A,,Mostly Cloudy,0,2012-11-14 02:13:00
6:28 PM,50.0,46.4,87,30.18,10.0,Calm,Calm,-,N/A,,Scattered Clouds,0,2012-11-14 02:28:00
6:53 PM,50.0,46.9,89,30.19,10.0,Calm,Calm,-,N/A,,Scattered Clouds,0,2012-11-14 02:53:00
7:03 PM,50.0,46.4,87,30.18,10.0,Calm,Calm,-,N/A,,Mostly Cloudy,0,2012-11-14 03:03:00
7:12 PM,50.0,46.4,87,30.18,9.0,Calm,Calm,-,N/A,,Mostly Cloudy,0,2012-11-14 03:12:00
7:53 PM,48.0,46.0,93,30.20,10.0,Calm,Calm,-,N/A,,Partly Cloudy,0,2012-11-14 03:53:00
8:04 PM,48.2,44.6,87,30.19,10.0,Calm,Calm,-,N/A,,Scattered Clouds,0,2012-11-14 04:04:00
8:13 PM,48.2,44.6,87,30.19,9.0,Calm,Calm,-,N/A,,Mostly Cloudy,0,2012-11-14 04:13:00
8:53 PM,48.0,46.0,93,30.21,7.0,Calm,Calm,-,N/A,,Overcast,0,2012-11-14 04:53:00
9:41 PM,48.2,46.4,93,30.21,7.0,Calm,Calm,-,N/A,,Overcast,0,2012-11-14 05:41:00
9:53 PM,48.9,46.9,93,30.21,7.0,Calm,Calm,-,N/A,,Overcast,0,2012-11-14 05:53:00
10:50 PM,48.2,46.4,93,30.21,2.0,Calm,Calm,-,N/A,,Overcast,0,2012-11-14 06:50:00
10:53 PM,48.9,46.9,93,30.22,2.5,Calm,Calm,-,N/A,,Overcast,0,2012-11-14 06:53:00
11:00 PM,48.2,46.4,93,30.21,4.0,Calm,Calm,-,N/A,,Overcast,0,2012-11-14 07:00:00
11:19 PM,48.2,48.2,100,30.22,2.5,Calm,Calm,-,N/A,,Overcast,0,2012-11-14 07:19:00
11:33 PM,48.2,46.4,93,30.22,3.0,Calm,Calm,-,N/A,,Overcast,0,2012-11-14 07:33:00
11:51 PM,48.2,48.2,100,30.22,1.5,Calm,Calm,-,N/A,,Overcast,0,2012-11-14 07:51:00
11:53 PM,48.9,48.0,97,30.22,1.2,Calm,Calm,-,N/A,,Overcast,0,2012-11-14 07:53:00